This demonstration page uses our WeatherBlox Daily Observations layout. Learn more.

Hourly Observations for July 2, 2020

Temp ( °F °C ) Dew Point ( °F °C ) Humidity (%) Winds ( mph kmh ) Pressure ( in mb ) Visibility ( mi km ) Precip ( " mm )
12:15 am 00:15 Clear 68 20 65 18.3 90 90 ENE 8 13 29.92 1013 10 16.0934 0 0
12:35 am 00:35 Clear 68 20 65 18.5 91 91 ENE 6 9 29.92 1013 10 16.0934 0 0
12:55 am 00:55 Clear 69 20.6 66 18.9 90 90 E 6 9 29.92 1013 10 16.0934 0 0
1:15 am 01:15 Clear 69 20.3 65 18.6 90 90 E 6 9 29.91 1013 10 16.0934 0 0
1:35 am 01:35 Clear 69 20.6 66 19 91 91 E 6 9 29.93 1014 10 16.0934 0 0
1:55 am 01:55 Clear 69 20.5 66 18.8 90 90 ESE 5 7 29.92 1013 10 16.0934 0 0
2:15 am 02:15 Clear 68 20 65 18.6 92 92 ESE 3 6 29.92 1013 10 16.0934 0 0
2:35 am 02:35 Clear 67 19.6 65 18.4 93 93 ESE 3 6 29.92 1013 10 16.0934 0 0
2:55 am 02:55 Clear 67 19.5 65 18.1 92 92 ESE 6 9 29.92 1013 10 16.0934 0 0
3:15 am 03:15 Clear 66 19 65 18.2 95 95 ESE 7 11 29.94 1014 10 16.0934 0 0
3:35 am 03:35 Clear 67 19.5 65 18.6 95 95 ESE 7 11 29.93 1014 10 16.0934 0 0
3:55 am 03:55 Clear 67 19.6 66 18.7 95 95 ESE 6 9 29.93 1014 10 16.0934 0 0
4:15 am 04:15 Clear 68 20 66 19.1 95 95 ESE 6 9 29.94 1014 10 16.0934 0 0
4:35 am 04:35 Clear 68 19.8 67 19.2 96 96 E 7 11 29.93 1014 7 11.26538 0 0
4:55 am 04:55 Clear 68 19.9 67 19.3 96 96 E 8 13 29.94 1014 7 11.26538 0 0
5:15 am 05:15 Clear 68 20 67 19.4 96 96 E 7 11 29.94 1014 7 11.26538 0 0
5:35 am 05:35 Partly Cloudy 68 20 67 19.5 97 97 E 8 13 29.94 1014 7 11.26538 0 0
5:55 am 05:55 Partly Cloudy 68 19.8 67 19.2 96 96 E 7 11 29.94 1014 7 11.26538 0 0
6:15 am 06:15 Mostly Cloudy 69 20.5 67 19.6 95 95 E 7 11 29.93 1014 10 16.0934 0 0
6:35 am 06:35 Mostly Cloudy with Mist and Fog 68 20 67 19.2 95 95 E 5 7 29.95 1014 5 8.0467 0 0
6:55 am 06:55 Cloudy 69 20.6 67 19.7 95 95 E 5 7 29.95 1014 10 16.0934 0 0
7:15 am 07:15 Mostly Cloudy 69 20.7 67 19.6 93 93 ENE 7 11 29.94 1014 10 16.0934 0 0
7:35 am 07:35 Partly Cloudy 70 20.9 68 19.9 94 94 E 5 7 29.95 1014 10 16.0934 0 0
7:55 am 07:55 Mostly Cloudy 71 21.4 68 20.1 92 92 E 8 13 29.95 1014 10 16.0934 0 0
8:15 am 08:15 Cloudy 71 21.7 68 20.1 91 91 E 12 19 29.95 1014 10 16.0934 0 0
8:35 am 08:35 Cloudy 73 22.7 69 20.6 88 88 ESE 15 24 29.95 1014 10 16.0934 0 0
8:55 am 08:55 Partly Cloudy 75 23.7 69 20.8 84 84 E 14 22 29.94 1014 10 16.0934 0 0
9:15 am 09:15 Sunny 76 24.5 69 20.8 80 80 ESE 15 24 29.93 1014 10 16.0934 0 0
9:35 am 09:35 Sunny 77 25.1 69 20.3 75 75 ESE 15 24 29.93 1013 10 16.0934 0 0
9:55 am 09:55 Sunny 78 25.6 69 20.6 74 74 SE 14 22 29.93 1014 10 16.0934 0 0
10:15 am 10:15 Sunny 80 26.4 70 21 72 72 ESE 14 22 29.94 1014 10 16.0934 0 0
10:35 am 10:35 Partly Cloudy 80 26.9 69 20.8 69 69 E 13 20 29.92 1013 10 16.0934 0 0
10:55 am 10:55 Mostly Cloudy 80 26.9 68 20 66 66 ESE 12 19 29.93 1014 10 16.0934 0 0
11:15 am 11:15 Cloudy 81 27.1 67 19.5 63 63 ESE 8 13 29.93 1014 10 16.0934 0 0
11:35 am 11:35 Cloudy 81 27.2 68 20.1 65 65 ESE 7 11 29.92 1013 10 16.0934 0 0
11:55 am 11:55 Cloudy 83 28.1 69 20.6 64 64 ESE 10 17 29.92 1013 10 16.0934 0 0
12:15 pm 12:15 Mostly Cloudy 83 28.3 69 20.6 63 63 E 12 19 29.91 1013 10 16.0934 0 0
12:35 pm 12:35 Cloudy 83 28.5 69 20.3 61 61 SE 6 9 29.91 1013 10 16.0934 0 0
12:55 pm 12:55 Cloudy 84 28.7 68 20 59 59 SE 8 13 29.9 1012 10 16.0934 0 0
1:15 pm 13:15 Cloudy 85 29.5 70 21.2 61 61 ESE 12 19 29.89 1012 10 16.0934 0 0
1:35 pm 13:35 Mostly Cloudy 87 30.5 70 21.2 58 58 ESE 14 22 29.87 1012 10 16.0934 0 0
1:55 pm 13:55 Partly Cloudy 87 30.8 70 21.2 57 57 ESE 10 17 29.87 1012 10 16.0934 0 0
2:15 pm 14:15 Partly Cloudy 87 30.7 70 21.2 57 57 SE 10 17 29.85 1011 10 16.0934 0 0
2:35 pm 14:35 Mostly Cloudy 86 30.1 71 21.8 61 61 SE 8 13 29.86 1011 10 16.0934 0 0
2:55 pm 14:55 Cloudy 88 31 72 22.1 59 59 ESE 10 17 29.84 1010 10 16.0934 0 0
3:15 pm 15:15 Mostly Cloudy 87 30.6 72 22.2 61 61 ESE 13 20 29.83 1010 10 16.0934 0 0
3:35 pm 15:35 Partly Cloudy 88 30.9 72 22.2 60 60 ESE 15 24 29.82 1010 10 16.0934 0 0
3:55 pm 15:55 Partly Cloudy 88 31.2 72 22.4 60 60 ESE 13 20 29.83 1010 10 16.0934 0 0
4:15 pm 16:15 Partly Cloudy 89 31.6 72 22.1 57 57 SE 14 22 29.82 1010 10 16.0934 0 0
4:35 pm 16:35 Partly Cloudy 89 31.6 72 22.2 57 57 SE 16 26 29.82 1010 10 16.0934 0 0
4:55 pm 16:55 Partly Cloudy 89 31.7 73 22.6 59 59 ESE 16 26 29.8 1009 10 16.0934 0 0
5:15 pm 17:15 Partly Cloudy 88 31.3 72 22.3 59 59 ESE 15 24 29.81 1009 10 16.0934 0 0
5:35 pm 17:35 Partly Cloudy 89 31.5 73 22.5 59 59 SE 14 22 29.79 1009 10 16.0934 0 0
5:55 pm 17:55 Partly Cloudy 88 31.2 72 22.4 60 60 ESE 18 30 29.78 1008 10 16.0934 0 0
6:15 pm 18:15 Sunny 87 30.4 71 21.7 60 60 ESE 15 24 29.77 1008 10 16.0934 0 0
6:35 pm 18:35 Sunny 86 29.8 71 21.8 62 62 SE 13 20 29.79 1009 10 16.0934 0 0
6:55 pm 18:55 Sunny 85 29.3 72 22.2 66 66 SE 10 17 29.8 1009 10 16.0934 0 0
7:15 pm 19:15 Sunny 84 28.7 72 22 67 67 ESE 12 19 29.81 1009 10 16.0934 0 0
7:35 pm 19:35 Sunny 83 28.2 72 22.1 70 70 ESE 10 17 29.79 1009 10 16.0934 0 0
7:55 pm 19:55 Sunny 82 27.8 72 22.2 72 72 SE 9 15 29.82 1010 10 16.0934 0 0
8:15 pm 20:15 Sunny with Nearby Thunderstorms 82 27.6 71 21.9 71 71 SE 10 17 29.84 1010 10 16.0934 0 0
8:35 pm 20:35 Sunny with Thunderstorms 81 27.3 71 21.7 72 72 SE 12 19 29.83 1010 10 16.0934 0 0
8:55 pm 20:55 Mostly Cloudy with Nearby Thunderstorms 73 22.5 62 16.4 69 69 WSW 31 50 29.92 1013 7 11.26538 0 0
9:15 pm 21:15 Cloudy 67 19.4 62 16.8 85 85 W 26 43 29.96 1015 7 11.26538 0 0
9:35 pm 21:35 Windy with Storms Likely 68 20 63 17 83 83 SW 26 43 29.96 1014 10 16.0934 0 0
9:55 pm 21:55 Mostly Cloudy 67 19.3 63 17 87 87 W 22 35 29.96 1015 10 16.0934 0 0
10:15 pm 22:15 Cloudy with Light Thunderstorms 67 19.3 63 17 87 87 W 13 20 29.98 1015 10 16.0934 0.01 0.254
10:35 pm 22:35 Cloudy with Thunderstorms 67 19.4 63 17 86 86 SW 15 24 29.99 1016 10 16.0934 0.04 1.016
10:55 pm 22:55 Partly Cloudy with Light Thunderstorms 66 19.1 63 17.1 88 88 SW 16 26 30.01 1016 10 16.0934 0.06 1.524
11:15 pm 23:15 Partly Cloudy 67 19.4 62 16.9 86 86 SW 21 33 29.99 1016 10 16.0934 0.01 0.254
11:35 pm 23:35 Mostly Cloudy with Nearby Thunderstorms 65 18.6 63 17 90 90 SSW 15 24 29.99 1016 10 16.0934 0.04 1.016
11:55 pm 23:55 Mostly Cloudy with Light Rain 68 19.9 62 16.5 81 81 SSW 13 20 29.97 1015 10 16.0934 0.07 1.778

Powered by AerisWeather